sat.trackr.live / text

‹ back to catalog

TIMED

NORAD 26998 · 2001-055B

PAYLOAD ACTIVE UNKNOWN

§ Identity

Operator
Country
US
Launch date
2001-12-07
Launch site
AFWTR
Launch vehicle
Mass (kg)
RCS (m²)
2.72

Purposes: science

External: N2YO · Heavens-Above · Gunter

§ Orbital elements

Epoch: 2026-05-25T03:01:46.847424Z

Period
96.31 min
Inclination
74.0675°
Eccentricity
0.0000309
Mean motion
14.95226616 rev/d
Perigee alt
581.5 km
Apogee alt
581.9 km
Semi-major
6,959.8 km
B*
9.4419e-5
RAAN
281.4485°
Arg perigee
152.8352°
Mean anomaly
207.2849°
Rev number
32,737

§ Raw data

TIMED1 26998U 01055B   26145.12623666  .00000999  00000+0  94419-4 0  99922 26998  74.0675 281.4485 0000309 152.8352 207.2849 14.95226616327371

JSON: /api/v1/satellites/26998 · /tle

For live sub-satellite position, see the globe view (requires WebGL).

§ Visibility from observer

Set your observer location to see the next 7 days of passes ≥ 10°. The values pass through the URL so the page stays shareable.

No JS? Fill the form by hand. The geolocation button needs JavaScript.